Weather History for Pratt, KS

Change the Weather History Date:

Tuesday, October 16, 2012

  Actual Average (KP28) Record (KP28)
Temperature  
Mean Temperature 65 °F 59 °F  
Max Temperature 80 °F 71 °F 90 °F (1958)
Min Temperature 50 °F 46 °F 26 °F (1966)
Degree Days  
Heating Degree Days 0 7  
Month to date heating degree days 86  
Since 1 July heating degree days 120  
Cooling Degree Days 0 1  
Month to date cooling degree days 32  
Year to date cooling degree days 1763  
Growing Degree Days 15 (Base 50)    
Moisture  
Dew Point 40 °F    
Average Humidity 42    
Maximum Humidity 71    
Minimum Humidity 20    
Precipitation  
Precipitation 0.00 in 0.11 in 3.92 in (1968)
Month to date precipitation 1.54  
Year to date precipitation 23.99  
Snow  
Snow 0.00 in 0.00 in - ()
Month to date snowfall 0.0  
Since 1 July snowfall 0.0  
Since 1 September snowfall 0.0  
Snow Depth -    
Sea Level Pressure  
Sea Level Pressure 29.68 in    
Wind  
Wind Speed 9 mph (SSW)    
Max Wind Speed 13 mph    
Max Gust Speed -    
Visibility 10 miles    
Events      
T = Trace of Precipitation, MM = Missing Value Source: NWS Daily Summary

Daily Weather History Graph

Daily Weather History Graph

Search for Another Location

Airport:

Trip Planner

Search our weather history database for the weather conditions in past years. The results will help you decide how hot, cold, wet, or windy it might be!

Date:

Astronomy

Oct. 16, 2012 Rise Set
Actual Time 7:44 AM CDT 6:55 PM CDT
Civil Twilight 7:18 AM CDT 7:21 PM CDT
Nautical Twilight 6:47 AM CDT 7:52 PM CDT
Astronomical Twilight 6:17 AM CDT 8:22 PM CDT
Moon 9:06 AM CDT (10/16) 7:44 PM CDT (10/16)
Length of Visible Light 12h 03m
Length of Day
11h 10m
New Moon, 2% of the Moon is Illuminated
Oct 16
New Moon
Oct 21
First Quarter
Oct 29
Full
Nov 6
Last Quarter
Nov 13
New

Hourly Weather History & Observations

Time (CDT) Temp. Dew Point Humidity Pressure Visibility Wind Dir Wind Speed Gust Speed Precip Events Conditions
12:15 AM 60.8 °F 37.4 °F 42% 29.81 in 10.0 mi SSW 10.4 mph - N/A   Clear
12:35 AM 60.8 °F 37.4 °F 42% 29.81 in 10.0 mi SSW 10.4 mph - N/A   Clear
12:55 AM 59.0 °F 37.4 °F 45% 29.81 in 10.0 mi SSW 10.4 mph - N/A   Clear
1:15 AM 59.0 °F 37.4 °F 45% 29.80 in 10.0 mi SSW 11.5 mph - N/A   Clear
1:35 AM 59.0 °F 37.4 °F 45% 29.80 in 10.0 mi SSW 10.4 mph - N/A   Clear
1:55 AM 57.2 °F 37.4 °F 48% 29.79 in 10.0 mi SSW 10.4 mph - N/A   Clear
2:15 AM 59.0 °F 37.4 °F 45% 29.78 in 10.0 mi SSW 12.7 mph - N/A   Clear
2:35 AM 59.0 °F 37.4 °F 45% 29.77 in 10.0 mi SSW 12.7 mph - N/A   Clear
2:55 AM 57.2 °F 37.4 °F 48% 29.77 in 10.0 mi SSW 11.5 mph - N/A   Clear
3:15 AM 57.2 °F 37.4 °F 48% 29.77 in 10.0 mi SSW 11.5 mph - N/A   Clear
3:35 AM 57.2 °F 37.4 °F 48% 29.76 in 10.0 mi SSW 11.5 mph - N/A   Clear
3:55 AM 57.2 °F 37.4 °F 48% 29.76 in 10.0 mi SSW 10.4 mph - N/A   Clear
4:15 AM 57.2 °F 37.4 °F 48% 29.76 in 10.0 mi SSW 11.5 mph - N/A   Clear
4:35 AM 57.2 °F 37.4 °F 48% 29.76 in 10.0 mi SW 10.4 mph - N/A   Clear
4:55 AM 57.2 °F 37.4 °F 48% 29.76 in 10.0 mi SW 10.4 mph - N/A   Clear
5:35 AM 57.2 °F 39.2 °F 51% 29.75 in 10.0 mi SW 10.4 mph - N/A   Clear
5:55 AM 55.4 °F 39.2 °F 54% 29.75 in 10.0 mi SW 10.4 mph - N/A   Clear
6:15 AM 55.4 °F 39.2 °F 54% 29.74 in 10.0 mi SSW 11.5 mph - N/A   Clear
6:35 AM 53.6 °F 39.2 °F 58% 29.75 in 10.0 mi SSW 10.4 mph - N/A   Clear
6:55 AM 51.8 °F 39.2 °F 62% 29.76 in 10.0 mi SW 8.1 mph - N/A   Clear
7:15 AM 50.0 °F 39.2 °F 66% 29.76 in 10.0 mi SW 8.1 mph - N/A   Clear
7:35 AM 50.0 °F 39.2 °F 66% 29.75 in 10.0 mi SW 9.2 mph - N/A   Clear
7:55 AM 50.0 °F 39.2 °F 66% 29.74 in 10.0 mi SSW 8.1 mph - N/A   Clear
8:15 AM 50.0 °F 41.0 °F 71% 29.76 in 10.0 mi SW 4.6 mph - N/A   Clear
8:35 AM 51.8 °F 41.0 °F 67% 29.75 in 10.0 mi SSW 6.9 mph - N/A   Clear
8:55 AM 55.4 °F 41.0 °F 58% 29.75 in 10.0 mi SW 5.8 mph - N/A   Clear
9:15 AM 60.8 °F 42.8 °F 52% 29.76 in 10.0 mi SW 8.1 mph - N/A   Clear
9:35 AM 60.8 °F 42.8 °F 52% 29.75 in 10.0 mi SSW 9.2 mph - N/A   Clear
9:55 AM 62.6 °F 42.8 °F 48% 29.75 in 10.0 mi SW 8.1 mph - N/A   Clear
10:15 AM 66.2 °F 42.8 °F 43% 29.75 in 10.0 mi WSW 10.4 mph - N/A   Clear
10:35 AM 69.8 °F 42.8 °F 38% 29.75 in 10.0 mi WSW 12.7 mph - N/A   Clear
10:55 AM 69.8 °F 41.0 °F 35% 29.76 in 10.0 mi West 11.5 mph - N/A   Clear
11:15 AM 69.8 °F 41.0 °F 35% 29.75 in 10.0 mi West 9.2 mph - N/A   Clear
11:35 AM 71.6 °F 41.0 °F 33% 29.75 in 10.0 mi WNW 4.6 mph - N/A   Clear
11:55 AM 71.6 °F 41.0 °F 33% 29.74 in 10.0 mi WNW 4.6 mph - N/A   Clear
12:15 PM 71.6 °F 39.2 °F 31% 29.74 in 10.0 mi Calm Calm - N/A   Clear
12:35 PM 73.4 °F 37.4 °F 27% 29.73 in 10.0 mi Calm Calm - N/A   Clear
12:55 PM 73.4 °F 35.6 °F 25% 29.71 in 10.0 mi NE 5.8 mph - N/A   Clear
1:15 PM 77.0 °F 37.4 °F 24% 29.70 in 10.0 mi North 5.8 mph - N/A   Clear
1:35 PM 78.8 °F 35.6 °F 21% 29.69 in 10.0 mi ENE 5.8 mph - N/A   Clear
1:55 PM 78.8 °F 35.6 °F 21% 29.67 in 10.0 mi East 4.6 mph - N/A   Clear
2:15 PM 78.8 °F 33.8 °F 20% 29.65 in 10.0 mi Calm Calm - N/A   Clear
2:35 PM 78.8 °F 35.6 °F 21% 29.64 in 10.0 mi East 4.6 mph - N/A   Clear
2:55 PM 80.6 °F 35.6 °F 20% 29.62 in 10.0 mi East 6.9 mph - N/A   Clear
3:15 PM 80.6 °F 35.6 °F 20% 29.62 in 10.0 mi Calm Calm - N/A   Clear
3:35 PM 80.6 °F 35.6 °F 20% 29.61 in 10.0 mi SSE 6.9 mph - N/A   Clear
3:55 PM 80.6 °F 35.6 °F 20% 29.60 in 10.0 mi Calm Calm - N/A   Clear
4:15 PM 80.6 °F 35.6 °F 20% 29.60 in 10.0 mi West 3.5 mph - N/A   Clear
4:35 PM 80.6 °F 35.6 °F 20% 29.59 in 10.0 mi Calm Calm - N/A   Clear
4:55 PM 80.6 °F 35.6 °F 20% 29.59 in 10.0 mi Calm Calm - N/A   Clear
5:15 PM 80.6 °F 35.6 °F 20% 29.58 in 10.0 mi Calm Calm - N/A   Clear
5:35 PM 80.6 °F 35.6 °F 20% 29.57 in 10.0 mi South 3.5 mph - N/A   Clear
5:55 PM 80.6 °F 37.4 °F 21% 29.57 in 10.0 mi SSW 6.9 mph - N/A   Clear
6:15 PM 78.8 °F 37.4 °F 23% 29.57 in 10.0 mi South 5.8 mph - N/A   Clear
6:35 PM 78.8 °F 37.4 °F 23% 29.56 in 10.0 mi South 5.8 mph - N/A   Clear
6:55 PM 77.0 °F 39.2 °F 26% 29.56 in 10.0 mi South 5.8 mph - N/A   Clear
7:15 PM 75.2 °F 39.2 °F 27% 29.56 in 10.0 mi SSE 4.6 mph - N/A   Clear
7:35 PM 73.4 °F 39.2 °F 29% 29.56 in 10.0 mi South 6.9 mph - N/A   Clear
7:55 PM 71.6 °F 41.0 °F 33% 29.55 in 10.0 mi South 8.1 mph - N/A   Clear
8:15 PM 71.6 °F 44.6 °F 38% 29.54 in 10.0 mi South 9.2 mph - N/A   Clear
8:35 PM 69.8 °F 44.6 °F 40% 29.54 in 10.0 mi South 6.9 mph - N/A   Clear
8:55 PM 62.6 °F 46.4 °F 55% 29.55 in 10.0 mi SSW 6.9 mph - N/A   Clear
9:15 PM 62.6 °F 44.6 °F 52% 29.55 in 10.0 mi South 6.9 mph - N/A   Clear
9:35 PM 59.0 °F 44.6 °F 59% 29.55 in 10.0 mi South 5.8 mph - N/A   Clear
9:55 PM 59.0 °F 44.6 °F 59% 29.55 in 10.0 mi South 5.8 mph - N/A   Clear
10:15 PM 59.0 °F 44.6 °F 59% 29.54 in 10.0 mi South 8.1 mph - N/A   Clear
10:35 PM 64.4 °F 46.4 °F 52% 29.54 in 10.0 mi SSE 6.9 mph - N/A   Clear
10:55 PM 64.4 °F 48.2 °F 56% 29.53 in 10.0 mi SSE 8.1 mph - N/A   Clear
11:15 PM 62.6 °F 50.0 °F 63% 29.52 in 10.0 mi South 11.5 mph - N/A   Clear
11:35 PM 62.6 °F 50.0 °F 63% 29.52 in 10.0 mi South 10.4 mph - N/A   Clear
11:55 PM 62.6 °F 51.8 °F 68% 29.51 in 10.0 mi South 10.4 mph - N/A   Clear